Date String (YYYY-MM-DD hh:mm:ss) UTC,Instrument flags,Ambient pressure (hPa),Sample flow (lpm),Bypass flow (lpm),Sample temperature (°C),Ambient temperature (°C),ASC tube jacket temperature (°C),LED temperature (°C),Box temperature (°C),Sample RH (%),Span deviation,Mass concentration (μg/m³),Mass concentration (μg/m³),Mass concentration (μg/m³)
DateTimeUTC,F1_M11,P_M11,Q1_M11,Q2_M11,T1_M11,T2_M11,T3_M11,T4_M11,T5_M11,U1_M11,ZSPAN_M11,X0_M11,X2_M11,X1_M11
2023-03-09 11:00:00,,0822.8,5.02,0.00,22.6,23.0,00.0,31.2,24.6,17.1,0000.1,0018.48,0012.63,0012.03
2023-03-09 11:01:00,,0822.8,4.99,0.00,22.6,22.5,00.0,31.2,24.5,17.0,0000.0,0018.38,0012.58,0012.00
2023-03-09 11:02:00,,0822.8,5.00,0.00,22.6,22.1,00.0,31.2,24.4,17.0,-000.1,0018.31,0012.53,0011.95
2023-03-09 11:03:00,,0823.0,4.99,0.00,22.6,21.8,00.0,31.2,24.3,17.0,-000.2,0018.15,0012.47,0011.92
2023-03-09 11:04:00,,0823.0,5.00,0.00,22.6,21.6,00.0,31.2,24.3,17.0,-000.1,0018.09,0012.45,0011.90
2023-03-09 11:05:00,,0823.0,5.00,0.00,22.6,21.4,00.0,31.2,24.3,17.1,-000.2,0018.08,0012.46,0011.91
2023-03-09 11:06:00,,0823.1,4.99,0.00,22.6,21.2,00.0,31.2,24.3,17.1,-000.2,0018.11,0012.49,0011.94
2023-03-09 11:07:00,,0823.1,5.02,0.00,22.5,21.0,00.0,31.2,24.2,17.1,-000.1,0018.05,0012.48,0011.95
2023-03-09 11:08:00,,0823.1,5.00,0.00,22.5,20.9,00.0,31.2,24.2,17.1,-000.1,0018.04,0012.46,0011.95
2023-03-09 11:09:00,,0823.0,4.99,0.00,22.5,20.8,00.0,31.2,24.1,17.1,-000.1,0018.03,0012.48,0011.94
2023-03-09 11:10:00,,0823.1,5.00,0.00,22.5,20.7,00.0,31.2,24.1,17.2,-000.1,0017.96,0012.50,0011.98
2023-03-09 11:11:00,,0823.1,5.00,0.00,22.4,20.7,00.0,31.2,24.1,17.2,-000.2,0017.89,0012.46,0011.97
2023-03-09 11:12:00,,0822.9,5.00,0.00,22.4,20.7,00.0,31.2,24.1,17.2,-000.2,0018.05,0012.52,0012.00
2023-03-09 11:13:00,,0822.9,5.00,0.00,22.4,20.7,00.0,31.2,24.1,17.2,-000.2,0018.09,0012.53,0012.00
2023-03-09 11:14:00,,0823.0,5.00,0.00,22.4,20.6,00.0,31.2,24.0,17.2,-000.1,0018.13,0012.52,0011.99
2023-03-09 11:15:00,,0822.8,5.01,0.00,22.3,20.6,00.0,31.2,24.0,17.2,-000.1,0018.10,0012.50,0011.95
2023-03-09 11:16:00,,0822.8,5.00,0.00,22.3,20.6,00.0,31.1,24.0,17.2,-000.0,0018.07,0012.48,0011.92
2023-03-09 11:17:00,,0822.8,4.99,0.00,22.3,20.7,00.0,31.1,24.0,17.2,0000.0,0017.85,0012.36,0011.83
2023-03-09 11:18:00,,0822.7,5.01,0.00,22.4,21.6,00.0,31.1,24.2,17.2,-000.2,0017.72,0012.27,0011.72
2023-03-09 11:19:00,,0822.6,5.01,0.00,22.5,22.7,00.0,31.1,24.5,17.1,-000.3,0017.56,0012.15,0011.61
2023-03-09 11:20:00,,0822.6,5.01,0.00,22.6,23.0,00.0,31.2,24.6,17.0,-000.4,0017.46,0012.08,0011.54
2023-03-09 11:21:00,,0822.7,5.01,0.00,22.6,22.5,00.0,31.2,24.5,16.9,-000.4,0017.41,0012.03,0011.48
2023-03-09 11:22:00,,0822.6,4.97,0.00,22.6,22.1,00.0,31.2,24.5,16.9,-000.3,0017.45,0012.00,0011.44
2023-03-09 11:23:00,,0822.6,5.01,0.00,22.6,21.8,00.0,31.2,24.4,16.9,-000.3,0017.30,0011.93,0011.38
2023-03-09 11:24:00,,0822.6,4.99,0.00,22.6,21.5,00.0,31.3,24.3,16.9,-000.3,0017.19,0011.88,0011.33
2023-03-09 11:25:00,,0822.7,5.01,0.00,22.6,21.3,00.0,31.3,24.3,16.9,-000.1,0017.08,0011.86,0011.32
2023-03-09 11:26:00,,0822.6,4.98,0.00,22.6,21.2,00.0,31.3,24.2,16.8,-000.1,0017.76,0011.85,0011.32
2023-03-09 11:27:00,,0822.7,4.97,0.00,22.5,21.0,00.0,31.3,24.2,16.8,-000.1,0017.75,0011.80,0011.28
2023-03-09 11:28:00,,0822.8,4.99,0.00,22.5,20.9,00.0,31.3,24.2,16.8,-000.2,0017.76,0011.81,0011.30
2023-03-09 11:29:00,,0823.0,5.00,0.00,22.5,20.8,00.0,31.2,24.2,16.8,0000.0,0017.75,0011.82,0011.32
2023-03-09 11:30:00,,0823.2,5.01,0.00,22.5,20.8,00.0,31.2,24.1,16.9,0000.1,0017.83,0011.87,0011.35
2023-03-09 11:31:00,,0823.1,4.99,0.00,22.4,20.7,00.0,31.2,24.1,16.9,0000.0,0017.90,0011.90,0011.39
2023-03-09 11:32:00,,0823.1,5.00,0.00,22.4,20.7,00.0,31.2,24.1,16.9,-000.2,0017.92,0011.86,0011.36
2023-03-09 11:33:00,,0823.1,5.00,0.00,22.4,20.6,00.0,31.2,24.1,16.9,-000.2,0017.76,0011.79,0011.29
2023-03-09 11:34:00,,0823.1,5.00,0.00,22.4,20.7,00.0,31.2,24.1,17.0,-000.1,0017.67,0011.71,0011.23
2023-03-09 11:35:00,,0823.2,5.01,0.00,22.4,21.7,00.0,31.2,24.3,16.9,-000.1,0017.87,0011.67,0011.21
2023-03-09 11:36:00,,0823.4,4.99,0.00,22.6,22.8,00.0,31.2,24.5,16.9,-000.2,0017.93,0011.58,0011.13
2023-03-09 11:37:00,,0823.4,5.02,0.00,22.7,23.1,00.0,31.2,24.6,16.8,-000.3,0017.09,0011.48,0011.04
2023-03-09 11:38:00,,0823.4,4.99,0.00,22.7,22.6,00.0,31.3,24.6,16.8,-000.3,0016.87,0011.41,0010.98
2023-03-09 11:39:00,,0823.4,4.98,0.00,22.7,22.2,00.0,31.3,24.5,16.8,-000.3,0016.76,0011.33,0010.91
2023-03-09 11:40:00,,0823.4,5.00,0.00,22.7,21.9,00.0,31.3,24.4,16.8,-000.4,0016.65,0011.29,0010.87
2023-03-09 11:41:00,,0823.4,4.99,0.00,22.7,21.6,00.0,31.3,24.4,16.9,-000.3,0016.58,0011.27,0010.88
2023-03-09 11:42:00,,0823.4,4.99,0.00,22.6,21.4,00.0,31.3,24.4,16.9,-000.2,0016.29,0011.15,0010.77
2023-03-09 11:43:00,,0823.4,5.01,0.00,22.6,21.2,00.0,31.3,24.3,16.9,-000.2,0016.03,0011.07,0010.71
2023-03-09 11:44:00,,0823.4,4.99,0.00,22.6,21.1,00.0,31.3,24.3,16.9,-000.3,0015.99,0011.06,0010.71
2023-03-09 11:45:00,,0823.6,4.99,0.00,22.6,21.0,00.0,31.3,24.2,16.9,-000.3,0015.85,0011.04,0010.71
2023-03-09 11:46:00,,0823.7,5.01,0.00,22.5,20.9,00.0,31.3,24.2,17.0,-000.4,0015.54,0011.03,0010.70
2023-03-09 11:47:00,,0823.7,4.99,0.00,22.5,20.8,00.0,31.3,24.1,17.0,-000.3,0015.38,0011.07,0010.73
2023-03-09 11:48:00,,0823.7,5.01,0.00,22.5,20.7,00.0,31.3,24.1,17.0,-000.3,0015.45,0011.12,0010.77
2023-03-09 11:49:00,,0823.9,5.00,0.00,22.5,20.7,00.0,31.3,24.1,17.0,-000.3,0015.49,0011.15,0010.81
2023-03-09 11:50:00,,0824.0,5.00,0.00,22.4,20.6,00.0,31.2,24.1,17.1,-000.4,0015.52,0011.16,0010.84
2023-03-09 11:51:00,,0824.0,5.01,0.00,22.4,20.5,00.0,31.2,24.0,17.1,-000.3,0015.64,0011.21,0010.86
2023-03-09 11:52:00,,0824.0,5.00,0.00,22.4,20.5,00.0,31.2,24.0,17.1,-000.3,0015.58,0011.16,0010.81
2023-03-09 11:53:00,,0824.1,5.02,0.00,22.4,21.4,00.0,31.2,24.2,17.1,-000.3,0015.66,0011.19,0010.83
2023-03-09 11:54:00,,0824.1,4.94,0.00,22.6,22.5,00.0,31.2,24.5,17.0,-000.4,0015.56,0011.11,0010.75
2023-03-09 11:55:00,,0824.1,5.00,0.00,22.7,23.0,00.0,31.2,24.6,16.9,-000.4,0015.42,0010.99,0010.63
2023-03-09 11:56:00,,0824.1,5.01,0.00,22.7,22.4,00.0,31.2,24.4,16.9,-000.5,0015.38,0010.89,0010.52
2023-03-09 11:57:00,,0824.0,5.00,0.00,22.6,21.8,00.0,31.3,24.3,16.9,-000.5,0015.22,0010.77,0010.42
2023-03-09 11:58:00,,0823.9,5.01,0.00,22.6,21.5,00.0,31.3,24.2,17.0,-000.6,0014.99,0010.62,0010.28
2023-03-09 11:59:00,,0823.9,4.99,0.00,22.5,21.3,00.0,31.3,24.2,16.9,-000.5,0014.74,0010.45,0010.14
